Location: Blanot
(47.1713°N, 4.2340°E)
Time: 03:50:55
(UTC+00:00)

Cosmos 1869 Rocket - Pass Details

Date: 14 July 2020
Orbit: 605 x 632 km, 82.5° (Epoch: 06 August)

Event Time Altitude Azimuth Distance (km) Brightness Sun altitude
Exits shadow 02:04:43 23° 233° (SW) 1,289 4.6 -14.7°
Maximum altitude 02:06:48 38° 285° (WNW) 934 4.3 -14.5°
Drops below altitude 10° 02:10:53 10° 355° (N) 1,972 6.9 -14.1°
Sets 02:13:15 0° 3° (N) 2,884 8.1 -13.9°
